GW0353 Weather Reports


Display with metric or nautical units.
time (UTC)temp
F
wind
direction
speed
MPH
gust
MPH
rain 1hr
in
rain 24hr
in
rain mn
in
humidity
%
barometer
mb
20220810072103 57 0 0.0 2.0 0.00 0.00 0.00 74 1028.0
20220810071607 57 158 0.0 2.0 0.00 0.00 0.00 75 1028.1
20220810071104 57 0 0.0 2.0 0.00 0.00 0.00 75 1028.1
20220810070555 57 164 0.0 1.0 0.00 0.00 0.00 75 1028.2
20220810070113 57 0 0.0 1.0 0.00 0.00 0.00 74 1028.2
20220810065558 58 152 0.0 2.0 0.00 0.00 0.00 73 1028.1
20220810065107 57 148 0.0 2.0 0.00 0.00 0.00 74 1028.1
20220810064607 57 181 0.0 1.0 0.00 0.00 0.00 74 1028.2
20220810064056 58 0 0.0 1.0 0.00 0.00 0.00 74 1028.1
20220810063600 58 0 0.0 1.0 0.00 0.00 0.00 74 1028.1
20220810063111 58 0 0.0 1.0 0.00 0.00 0.00 73 1028.1
20220810062558 59 0 0.0 0.0 0.00 0.00 0.00 73 1028.1
20220810062058 59 0 0.0 0.0 0.00 0.00 0.00 72 1028.1
20220810061609 59 0 0.0 0.0 0.00 0.00 0.00 72 1028.0
20220810061100 59 0 0.0 1.0 0.00 0.00 0.00 71 1028.0
20220810060555 59 0 0.0 1.0 0.00 0.00 0.00 72 1028.1
20220810060120 60 0 0.0 1.0 0.00 0.00 0.00 69 1028.0
20220810055558 60 0 0.0 0.0 0.00 0.00 0.00 69 1028.2
20220810055058 60 0 0.0 0.0 0.00 0.00 0.00 70 1028.1
20220810054700 60 0 0.0 1.0 0.00 0.00 0.00 71 1027.9
20220810054059 60 0 0.0 1.0 0.00 0.00 0.00 72 1028.0
20220810053555 59 132 0.0 3.0 0.00 0.00 0.00 72 1027.9
20220810053107 59 0 0.0 3.0 0.00 0.00 0.00 72 1027.9
20220810052601 60 149 0.0 2.0 0.00 0.00 0.00 70 1027.8
20220810052104 61 0 0.0 0.0 0.00 0.00 0.00 70 1027.8
20220810051609 61 0 0.0 1.0 0.00 0.00 0.00 69 1027.7
20220810051100 61 0 0.0 1.0 0.00 0.00 0.00 68 1027.6
20220810050612 62 0 0.0 0.0 0.00 0.00 0.00 67 1027.6
20220810050216 62 0 0.0 2.0 0.00 0.00 0.00 67 1027.6
20220810045559 62 0 0.0 2.0 0.00 0.00 0.00 67 1027.5
20220810045101 63 169 1.0 2.0 0.00 0.00 0.00 66 1027.4
20220810044619 63 136 1.0 2.0 0.00 0.00 0.00 66 1027.4
20220810044059 63 162 0.0 2.0 0.00 0.00 0.00 65 1027.5
20220810043558 63 188 1.0 2.0 0.00 0.00 0.00 65 1027.3
20220810043150 64 0 0.0 2.0 0.00 0.00 0.00 64 1027.3
20220810042558 64 184 0.0 2.0 0.00 0.00 0.00 63 1027.2
20220810042109 64 0 0.0 2.0 0.00 0.00 0.00 62 1027.1
20220810041608 64 146 0.0 2.0 0.00 0.00 0.00 62 1027.1
20220810041057 65 0 0.0 1.0 0.00 0.00 0.00 61 1027.1
20220810040602 65 270 0.0 2.0 0.00 0.00 0.00 60 1027.1
20220810040125 65 0 0.0 2.0 0.00 0.00 0.00 60 1027.1
20220810035601 65 43 1.0 4.0 0.00 0.01 0.00 60 1027.1
20220810035100 65 80 0.0 4.0 0.00 0.01 0.00 61 1027.1
20220810034612 65 46 1.0 4.0 0.00 0.01 0.00 61 1027.0
20220810034058 65 101 1.0 3.0 0.00 0.01 0.00 61 1026.9
20220810033558 65 124 0.0 2.0 0.00 0.01 0.00 61 1026.8
20220810033108 66 139 0.0 2.0 0.00 0.01 0.00 59 1026.7
20220810032603 66 155 1.0 2.0 0.00 0.01 0.00 58 1026.7
20220810032100 66 0 0.0 2.0 0.00 0.01 0.00 57 1026.5
20220810031613 66 0 0.0 3.0 0.00 0.01 0.00 57 1026.5
20220810031103 67 0 0.0 3.0 0.00 0.01 0.00 58 1026.5
20220810030602 67 0 0.0 1.0 0.00 0.01 0.00 55 1026.4
20220810030116 68 0 0.0 1.0 0.00 0.01 0.00 55 1026.4
20220810025606 68 0 0.0 1.0 0.00 0.02 0.00 53 1026.3
20220810025059 68 155 0.0 0.0 0.00 0.02 0.00 53 1026.3
20220810024615 69 0 0.0 0.0 0.00 0.02 0.00 51 1026.2
20220810024103 69 0 0.0 3.0 0.00 0.02 0.00 52 1026.2
20220810023557 70 0 0.0 5.0 0.00 0.02 0.00 50 1026.1
20220810023129 70 69 1.0 5.0 0.00 0.02 0.00 48 1026.1
20220810022601 70 32 1.0 5.0 0.00 0.02 0.00 48 1026.2
20220810022058 70 0 0.0 7.0 0.00 0.02 0.00 49 1026.0
20220810021643 70 0 0.0 7.0 0.00 0.02 0.00 49 1026.0
20220810021058 70 21 3.0 6.0 0.00 0.02 0.00 48 1026.1
20220810020558 71 0 0.0 2.0 0.00 0.02 0.00 47 1025.9
20220810020135 72 82 0.0 3.0 0.00 0.02 0.00 45 1025.9
20220810015557 72 0 0.0 3.0 0.00 0.03 0.00 42 1025.7
20220810015103 73 0 1.0 3.0 0.00 0.03 0.00 40 1025.8
20220810014607 73 227 0.0 5.0 0.00 0.03 0.00 42 1025.7
20220810014101 73 135 1.0 5.0 0.00 0.03 0.00 39 1025.7
20220810013559 73 194 1.0 5.0 0.00 0.03 0.00 39 1025.7
20220810013113 73 238 0.0 7.0 0.00 0.03 0.00 41 1025.6
20220810012600 73 231 1.0 9.0 0.00 0.03 0.00 40 1025.5
20220810012100 73 139 5.0 9.0 0.00 0.03 0.00 40 1025.7
20220810011704 73 131 4.0 9.0 0.00 0.03 0.00 39 1025.7
20220810011057 73 222 3.0 9.0 0.00 0.03 0.00 41 1025.6
20220810010559 73 139 1.0 8.0 0.00 0.03 0.00 39 1025.7
20220810010124 73 223 1.0 10.0 0.00 0.03 0.00 41 1025.5
20220810005605 73 163 4.0 10.0 0.00 0.03 0.00 41 1025.6
20220810005100 74 103 4.0 9.0 0.00 0.03 0.00 40 1025.8
20220810004620 74 167 2.0 8.0 0.00 0.03 0.00 40 1025.9
20220810004101 74 207 2.0 8.0 0.00 0.03 0.00 38 1025.8
20220810003559 74 236 2.0 8.0 0.00 0.03 0.00 40 1025.8
20220810003139 74 130 1.0 13.0 0.00 0.03 0.00 39 1025.7
20220810002557 74 178 4.0 13.0 0.00 0.03 0.00 39 1025.7
20220810002058 74 155 4.0 10.0 0.00 0.03 0.00 39 1025.8
20220810001608 74 216 3.0 9.0 0.00 0.03 0.00 41 1025.7
20220810001056 74 0 4.0 11.0 0.00 0.03 0.00 40 1025.7
20220810000559 75 160 3.0 11.0 0.00 0.03 0.00 39 1025.8
20220810000119 76 120 3.0 8.0 0.00 0.03 0.00 38 1025.7
20220809235557 76 235 3.0 9.0 0.00 0.03 0.00 38 1025.7
20220809235058 76 184 1.0 10.0 0.00 0.03 0.00 39 1025.6
20220809234629 75 139 3.0 10.0 0.00 0.03 0.00 39 1025.7
20220809234058 75 206 4.0 10.0 0.00 0.03 0.00 38 1025.8
20220809233601 75 193 4.0 10.0 0.00 0.03 0.00 38 1025.7
20220809233144 75 157 3.0 12.0 0.00 0.03 0.00 39 1025.6
20220809232556 75 141 5.0 13.0 0.00 0.03 0.00 39 1025.7
20220809232057 75 195 6.0 13.0 0.00 0.03 0.00 40 1025.8
20220809231604 75 131 7.0 13.0 0.00 0.03 0.00 38 1025.8
20220809231104 75 160 6.0 13.0 0.00 0.03 0.00 38 1025.9
20220809230558 75 122 4.0 11.0 0.00 0.03 0.00 39 1025.8
20220809230133 75 221 7.0 11.0 0.00 0.03 0.00 38 1026.0
20220809225558 76 226 2.0 10.0 0.00 0.03 0.00 37 1026.0
20220809225102 76 127 1.0 10.0 0.00 0.03 0.00 38 1026.0
20220809224708 76 267 3.0 10.0 0.00 0.03 0.00 38 1026.0
20220809224104 77 138 2.0 10.0 0.00 0.03 0.00 37 1026.0
20220809223603 78 179 2.0 3.0 0.00 0.03 0.00 41 1026.1
20220809223105 78 203 0.0 2.0 0.00 0.03 0.00 40 1026.1
20220809222557 77 0 0.0 2.0 0.00 0.03 0.00 40 1026.0
20220809222059 76 228 0.0 7.0 0.00 0.03 0.00 43 1026.1
20220809221608 75 0 0.0 15.0 0.00 0.03 0.00 43 1026.2
20220809221056 74 143 7.0 15.0 0.00 0.03 0.00 42 1026.3
20220809220605 73 140 3.0 10.0 0.00 0.03 0.00 45 1026.1
20220809220130 74 131 5.0 10.0 0.00 0.03 0.00 46 1026.4
20220809215558 74 131 2.0 9.0 0.00 0.05 0.00 46 1026.3
20220809215103 74 12 2.0 11.0 0.00 0.05 0.00 45 1026.3
20220809214614 74 30 4.0 11.0 0.00 0.05 0.00 45 1026.2
20220809214058 74 20 5.0 12.0 0.00 0.05 0.00 45 1026.2
20220809213600 74 34 5.0 12.0 0.00 0.05 0.00 45 1026.3
20220809213140 74 54 2.0 10.0 0.00 0.05 0.00 46 1026.3
20220809212558 74 129 4.0 12.0 0.00 0.05 0.00 46 1026.3
20220809212057 74 99 6.0 14.0 0.00 0.05 0.00 46 1026.4
20220809211613 74 112 6.0 14.0 0.00 0.05 0.00 45 1026.4
20220809211057 74 30 5.0 11.0 0.00 0.05 0.00 47 1026.4
20220809210600 73 353 2.0 11.0 0.00 0.05 0.00 47 1026.6
20220809210112 73 78 4.0 14.0 0.00 0.05 0.00 46 1026.5
20220809205556 73 149 6.0 14.0 0.00 0.09 0.00 47 1026.6
20220809205058 73 71 6.0 15.0 0.00 0.09 0.00 46 1026.7
20220809204612 73 133 8.0 15.0 0.00 0.09 0.00 47 1026.5
20220809204057 73 124 4.0 10.0 0.00 0.09 0.00 47 1026.6
20220809203606 73 91 4.0 17.0 0.00 0.09 0.00 49 1026.7
20220809203138 73 148 8.0 17.0 0.00 0.09 0.00 48 1026.6
20220809202557 72 114 7.0 16.0 0.00 0.09 0.00 49 1026.7
20220809202056 72 141 8.0 16.0 0.00 0.09 0.00 49 1026.7
20220809201604 72 112 9.0 16.0 0.00 0.09 0.00 49 1026.8
20220809201058 73 60 5.0 10.0 0.00 0.09 0.00 49 1026.8
20220809200557 73 113 5.0 11.0 0.00 0.09 0.00 49 1026.7
20220809200106 73 82 5.0 13.0 0.00 0.09 0.00 49 1026.8
20220809195558 73 101 6.0 13.0 0.00 0.14 0.00 48 1026.9
20220809195058 73 134 6.0 12.0 0.00 0.14 0.00 49 1026.8
20220809194610 73 32 7.0 13.0 0.00 0.14 0.00 49 1026.8
20220809194056 73 98 6.0 14.0 0.00 0.14 0.00 50 1026.9
20220809193556 73 67 9.0 15.0 0.00 0.14 0.00 50 1026.9
20220809193107 73 57 6.0 15.0 0.00 0.14 0.00 51 1026.9
20220809192557 73 38 7.0 14.0 0.00 0.14 0.00 50 1026.9
20220809192056 72 30 5.0 16.0 0.00 0.14 0.00 52 1026.9
20220809191607 72 121 9.0 16.0 0.00 0.14 0.00 51 1027.1
20220809191057 73 148 5.0 9.0 0.00 0.14 0.00 51 1027.3
20220809190557 73 29 3.0 7.0 0.00 0.14 0.00 52 1027.3
20220809190108 73 94 1.0 5.0 0.00 0.14 0.00 51 1027.4
20220809185557 73 164 2.0 4.0 0.00 0.15 0.00 51 1027.5
20220809185101 73 0 0.0 2.0 0.00 0.15 0.00 54 1027.5
20220809184608 72 0 0.0 3.0 0.00 0.15 0.00 53 1027.7
20220809184058 73 122 1.0 3.0 0.00 0.15 0.00 54 1027.7
20220809183559 73 229 0.0 3.0 0.00 0.15 0.00 52 1027.6
20220809183107 73 0 0.0 3.0 0.00 0.15 0.00 54 1027.7
20220809182602 73 143 1.0 3.0 0.00 0.15 0.00 52 1027.6
20220809182059 73 182 0.0 3.0 0.00 0.15 0.00 55 1027.7
20220809181610 72 0 0.0 3.0 0.00 0.15 0.00 53 1027.7
20220809181058 72 281 0.0 4.0 0.00 0.15 0.00 57 1027.8
20220809180558 72 34 0.0 4.0 0.00 0.15 0.00 58 1027.7
20220809180112 72 65 0.0 3.0 0.00 0.15 0.00 59 1027.7
20220809175558 73 40 0.0 3.0 0.00 0.15 0.00 60 1027.9
20220809175056 72 0 0.0 3.0 0.00 0.15 0.00 60 1027.8
20220809174609 72 230 0.0 3.0 0.00 0.15 0.00 63 1027.8
20220809174057 71 0 0.0 5.0 0.00 0.15 0.00 62 1027.9
20220809173558 71 300 2.0 5.0 0.00 0.15 0.00 63 1027.8
20220809173121 71 0 0.0 3.0 0.00 0.15 0.00 62 1027.8
20220809172558 70 0 0.0 3.0 0.00 0.15 0.00 63 1027.8
20220809172058 70 0 0.0 5.0 0.00 0.15 0.00 65 1027.8
20220809171637 70 54 2.0 5.0 0.00 0.15 0.00 64 1027.8
20220809171057 70 27 0.0 3.0 0.00 0.15 0.00 66 1027.6
20220809170600 67 0 0.0 2.0 0.00 0.15 0.00 68 1027.8
20220809170110 66 0 0.0 2.0 0.00 0.15 0.00 70 1027.8
20220809165559 65 0 0.0 1.0 0.00 0.15 0.00 70 1027.8
20220809165056 65 0 0.0 1.0 0.00 0.15 0.00 73 1027.9
20220809164604 65 96 0.0 1.0 0.00 0.15 0.00 72 1027.7
20220809164100 65 0 0.0 1.0 0.00 0.15 0.00 72 1027.7
20220809163558 65 0 0.0 1.0 0.00 0.15 0.00 72 1027.7
20220809163106 64 0 0.0 1.0 0.00 0.15 0.00 75 1027.8
20220809162558 64 11 0.0 1.0 0.00 0.15 0.00 76 1027.8
20220809162058 64 0 0.0 1.0 0.00 0.15 0.00 77 1027.7
20220809161619 63 296 0.0 1.0 0.00 0.15 0.00 80 1027.7
20220809161057 63 0 0.0 0.0 0.00 0.15 0.00 80 1027.6
20220809160559 62 0 0.0 0.0 0.00 0.15 0.00 83 1027.6
20220809160115 62 0 0.0 0.0 0.00 0.15 0.00 84 1027.7
20220809155557 61 0 0.0 0.0 0.00 0.15 0.00 86 1027.6
20220809155059 60 0 0.0 0.0 0.00 0.15 0.00 84 1027.6
20220809154609 61 0 0.0 0.0 0.00 0.15 0.00 86 1027.7
20220809154105 61 0 0.0 0.0 0.00 0.15 0.00 84 1027.8
20220809153603 60 0 0.0 0.0 0.00 0.15 0.00 85 1027.7
20220809153114 60 0 0.0 0.0 0.00 0.15 0.00 85 1027.7
20220809152556 60 0 0.0 1.0 0.00 0.15 0.00 85 1027.7
20220809152057 60 0 0.0 1.0 0.00 0.15 0.00 84 1027.7
20220809151609 60 0 0.0 2.0 0.00 0.15 0.00 83 1027.7
20220809151057 61 0 0.0 2.0 0.00 0.15 0.00 83 1027.8
20220809150558 61 0 0.0 2.0 0.00 0.15 0.00 83 1027.7
20220809150110 61 0 0.0 1.0 0.00 0.15 0.00 83 1027.6
20220809145601 61 0 0.0 2.0 0.00 0.15 0.00 81 1027.6
20220809145055 61 294 0.0 2.0 0.00 0.15 0.00 83 1027.6
20220809144617 61 0 0.0 0.0 0.00 0.15 0.00 83 1027.6
20220809144057 60 0 0.0 0.0 0.00 0.15 0.00 86 1027.6
20220809143555 59 0 0.0 0.0 0.00 0.15 0.00 87 1027.5
20220809143108 59 0 0.0 0.0 0.00 0.15 0.00 86 1027.5
20220809142558 59 0 0.0 0.0 0.00 0.15 0.00 88 1027.6
20220809142057 58 0 0.0 0.0 0.00 0.15 0.00 89 1027.5
20220809141609 57 0 0.0 0.0 0.00 0.15 0.00 90 1027.6
20220809141056 57 0 0.0 0.0 0.00 0.15 0.00 91 1027.6
20220809140557 56 0 0.0 0.0 0.00 0.15 0.00 93 1027.6
20220809140113 54 0 0.0 0.0 0.00 0.15 0.00 94 1027.7
20220809135557 53 0 0.0 0.0 0.00 0.15 0.00 94 1027.6
20220809135057 53 0 0.0 0.0 0.00 0.15 0.00 93 1027.6
20220809134614 53 0 0.0 0.0 0.00 0.15 0.00 94 1027.5
20220809134057 53 0 0.0 0.0 0.00 0.15 0.00 93 1027.5
20220809133557 53 0 0.0 0.0 0.00 0.15 0.00 93 1027.6
20220809133113 53 0 0.0 0.0 0.00 0.15 0.00 93 1027.6
20220809132556 52 0 0.0 0.0 0.00 0.15 0.00 93 1027.5
20220809132058 52 0 0.0 0.0 0.00 0.15 0.00 93 1027.7
20220809131611 52 0 0.0 0.0 0.00 0.15 0.00 92 1027.5
20220809131055 52 0 0.0 0.0 0.00 0.15 0.00 92 1027.4
20220809130557 52 0 0.0 0.0 0.00 0.15 0.00 92 1027.6
20220809130111 53 0 0.0 0.0 0.00 0.15 0.00 92 1027.5
20220809125557 53 0 0.0 0.0 0.00 0.15 0.00 92 1027.3
20220809125057 53 0 0.0 0.0 0.00 0.15 0.00 92 1027.4
20220809124609 53 0 0.0 0.0 0.00 0.15 0.00 92 1027.3
20220809124057 53 0 0.0 0.0 0.00 0.15 0.00 92 1027.3
20220809123558 53 0 0.0 0.0 0.00 0.15 0.00 92 1027.3
20220809123107 53 0 0.0 0.0 0.00 0.15 0.00 92 1027.2
20220809122558 52 0 0.0 0.0 0.00 0.15 0.00 92 1027.2
20220809122057 52 0 0.0 0.0 0.00 0.15 0.00 92 1027.2
20220809121609 52 0 0.0 0.0 0.00 0.15 0.00 92 1027.3
20220809121056 52 0 0.0 0.0 0.00 0.15 0.00 92 1027.2
20220809120600 52 0 0.0 0.0 0.00 0.15 0.00 93 1027.3
20220809120114 52 0 0.0 0.0 0.00 0.15 0.00 92 1027.3
20220809115557 52 0 0.0 0.0 0.00 0.15 0.00 92 1027.1
20220809115058 52 0 0.0 0.0 0.00 0.15 0.00 93 1027.2
20220809114608 52 0 0.0 0.0 0.00 0.15 0.00 93 1027.2
20220809114057 52 0 0.0 0.0 0.00 0.15 0.00 92 1027.2
20220809113557 52 0 0.0 0.0 0.00 0.15 0.00 93 1027.3
20220809113111 52 0 0.0 0.0 0.00 0.15 0.00 93 1027.3
20220809112558 52 0 0.0 0.0 0.00 0.15 0.00 93 1027.3
20220809112059 52 0 0.0 0.0 0.00 0.15 0.00 92 1027.3
20220809111609 52 0 0.0 0.0 0.00 0.15 0.00 92 1027.1
20220809111058 52 0 0.0 0.0 0.00 0.15 0.00 93 1027.3
20220809110558 52 0 0.0 0.0 0.00 0.15 0.00 92 1027.2
20220809110109 52 0 0.0 0.0 0.00 0.15 0.00 91 1027.2
20220809105557 53 0 0.0 0.0 0.00 0.15 0.00 91 1027.2
20220809105055 53 0 0.0 0.0 0.00 0.15 0.00 91 1027.3
20220809104604 53 0 0.0 0.0 0.00 0.15 0.00 91 1027.3
20220809104056 53 0 0.0 0.0 0.00 0.15 0.00 91 1027.3
20220809103600 53 0 0.0 0.0 0.00 0.15 0.00 91 1027.3
20220809103109 53 0 0.0 0.0 0.00 0.15 0.00 91 1027.4
20220809102558 53 0 0.0 0.0 0.00 0.15 0.00 91 1027.4
20220809102058 53 0 0.0 0.0 0.00 0.15 0.00 90 1027.4
20220809101609 54 0 0.0 0.0 0.00 0.15 0.00 91 1027.3
20220809101057 54 0 0.0 0.0 0.00 0.15 0.00 90 1027.3
20220809100558 54 0 0.0 0.0 0.00 0.15 0.00 90 1027.3
20220809100114 54 0 0.0 0.0 0.00 0.15 0.00 90 1027.2
20220809095557 54 0 0.0 0.0 0.00 0.15 0.00 90 1027.2
20220809095057 54 0 0.0 0.0 0.00 0.15 0.00 90 1027.3
20220809094607 54 0 0.0 0.0 0.00 0.15 0.00 90 1027.4
20220809094057 54 0 0.0 0.0 0.00 0.15 0.00 90 1027.5
20220809093557 54 0 0.0 0.0 0.00 0.15 0.00 91 1027.6
20220809093111 54 0 0.0 0.0 0.00 0.15 0.00 91 1027.7
20220809092557 54 0 0.0 0.0 0.00 0.15 0.00 90 1027.7
20220809092057 54 0 0.0 0.0 0.00 0.15 0.00 91 1027.7
20220809091610 54 0 0.0 0.0 0.00 0.15 0.00 91 1027.7
20220809091102 54 0 0.0 0.0 0.00 0.15 0.00 90 1027.7
20220809090557 54 0 0.0 0.0 0.00 0.15 0.00 90 1027.8
20220809090109 54 0 0.0 0.0 0.00 0.15 0.00 89 1027.7
20220809085558 54 0 0.0 0.0 0.00 0.15 0.00 90 1027.8
20220809085058 54 0 0.0 0.0 0.00 0.15 0.00 90 1027.9
20220809084606 54 0 0.0 0.0 0.00 0.15 0.00 89 1027.9
20220809084101 54 0 0.0 0.0 0.00 0.15 0.00 89 1028.0
20220809083558 54 0 0.0 0.0 0.00 0.15 0.00 88 1028.0
20220809083109 55 0 0.0 1.0 0.00 0.15 0.00 88 1028.1
20220809082557 55 0 0.0 2.0 0.00 0.15 0.00 87 1028.1
20220809082058 55 0 0.0 2.0 0.00 0.15 0.00 87 1028.1
20220809081606 55 0 0.0 2.0 0.00 0.15 0.00 86 1028.0
20220809081057 55 167 0.0 0.0 0.00 0.15 0.00 84 1028.0
20220809080558 56 0 0.0 1.0 0.00 0.15 0.00 83 1028.0
20220809080110 56 0 0.0 1.0 0.00 0.15 0.00 83 1028.1
20220809075559 56 0 0.0 2.0 0.00 0.15 0.00 83 1028.1
20220809075058 56 0 0.0 2.0 0.00 0.15 0.00 83 1028.2
20220809074606 56 115 1.0 2.0 0.00 0.15 0.00 84 1028.2
20220809074103 56 147 2.0 2.0 0.00 0.15 0.00 83 1028.2
20220809073558 56 0 0.0 0.0 0.00 0.15 0.00 83 1028.2
20220809073110 57 0 0.0 0.0 0.00 0.15 0.00 82 1028.1
20220809072559 57 0 0.0 0.0 0.00 0.15 0.00 82 1028.1